{"data":{"norad_id":67414,"intl_designator":"2026-005L","name":"STARLINK-36506","alt_names":[],"object_type":"PAYLOAD","status":"ACTIVE","operator":null,"country":"US","launch_date":"2026-01-12","launch_site_code":"AFETR","launch_vehicle":null,"mission":null,"orbit_class":"UNKNOWN","rcs_meters":null,"size_class":null,"mass_kg":null,"dimensions":null,"purposes":["comms"],"wikipedia_slug":null,"has_3d_model":false,"image_url":null,"decayed_at":null,"tle_current":{"epoch":"2026-05-25T02:14:42.258624Z","epoch_age_seconds":77259,"freshness":"FRESH","line1":"1 67414U 26005L   26145.09354466  .00028781  00000+0  10494-2 0  9995","line2":"2 67414  42.9996 166.3031 0001595 268.7969  91.2700 15.27640354 20389","mean_motion":15.27640354,"eccentricity":0.0001595,"inclination_deg":42.9996,"raan_deg":166.3031,"arg_perigee_deg":268.7969,"mean_anomaly_deg":91.27,"bstar":0.0010494,"rev_number":2038,"period_min":94.263024423876,"perigee_km":481.77405004322,"apogee_km":483.96271075957,"semimajor_km":6861.0053804014,"source":"CELESTRAK","updated_at":"2026-05-25T13:38:21.554511Z"}}}